Ketchikan, AK

4:30 PM AKST on December 12, 2018 (GMT -0900)
Ketchikan International

Weather History for PAKT - October, 2018

Change the Weather History Date:

Saturday, October 13, 2018

  Actual Average Record
Temperature  
Mean Temperature 48 °F -  
Max Temperature 55 °F 52 °F 59 °F (1984)
Min Temperature 43 °F 40 °F 32 °F (1976)
Degree Days  
Heating Degree Days 17    
Moisture  
Dew Point 42 °F    
Average Humidity 84    
Maximum Humidity 93    
Minimum Humidity 67    
Precipitation  
Precipitation 0.00 in - - ()
Sea Level Pressure  
Sea Level Pressure 30.41 in    
Wind  
Wind Speed 4 mph (SE)    
Max Wind Speed 9 mph    
Max Gust Speed -    
Visibility 10 miles    
Events      
Averages and records for this station are not official NWS values.
T = Trace of Precipitation, MM = Missing Value Source: NWS Daily Summary

Daily Weather History Graph

Daily Weather History Graph

Search for Another Location

Airport or City:

Astronomy

Oct. 13, 2018 Rise Set
Actual Time 7:13 AM AKDT 5:51 PM AKDT
Civil Twilight 6:36 AM AKDT 6:28 PM AKDT
Nautical Twilight 5:54 AM AKDT 7:10 PM AKDT
Astronomical Twilight 5:11 AM AKDT 7:53 PM AKDT
Moon 12:32 PM AKDT 8:36 PM AKDT
Length of Visible Light 11h 51m
Length of Day
10h 38m
Waxing Crescent, 23% of the Moon is Illuminated
Oct 13
Waxing Crescent
Oct 16
First Quarter
Oct 24
Full
Oct 31
Last Quarter
Nov 7
New

Hourly Weather History & Observations

Time (AKDT) Temp. Windchill Dew Point Humidity Pressure Visibility Wind Dir Wind Speed Gust Speed Precip Events Conditions
12:53 AM 44.1 °F - 41.0 °F 89% 30.43 in 10.0 mi Calm Calm - N/A   Clear
1:53 AM 43.0 °F 41.3 °F 41.0 °F 93% 30.44 in 10.0 mi WNW 3.5 mph - N/A   Clear
2:53 AM 45.0 °F 41.2 °F 42.1 °F 90% 30.43 in 10.0 mi NNW 6.9 mph - N/A   Clear
3:53 AM 44.1 °F 42.5 °F 41.0 °F 89% 30.40 in 10.0 mi SE 3.5 mph - N/A   Partly Cloudy
4:53 AM 45.0 °F - 42.1 °F 90% 30.43 in 10.0 mi Calm Calm - N/A   Clear
5:53 AM 44.1 °F - 41.0 °F 89% 30.42 in 10.0 mi Calm Calm - N/A   Clear
6:07 AM 43.0 °F - 41.0 °F 93% 30.42 in 10.0 mi Calm Calm - N/A   Clear
6:53 AM 44.1 °F 41.5 °F 42.1 °F 93% 30.42 in 10.0 mi South 4.6 mph - N/A   Clear
7:53 AM 46.4 °F 44.3 °F 42.8 °F 87% 30.42 in 10.0 mi East 4.6 mph - N/A   Scattered Clouds
8:53 AM 46.4 °F 44.3 °F 42.8 °F 87% 30.42 in 10.0 mi SSW 4.6 mph - N/A   Overcast
9:53 AM 48.2 °F - 42.8 °F 82% 30.43 in 10.0 mi ESE 6.9 mph - N/A   Mostly Cloudy
10:53 AM 50.0 °F - 44.1 °F 80% 30.43 in 10.0 mi ESE 6.9 mph - N/A   Mostly Cloudy
11:53 AM 51.1 °F - 44.1 °F 77% 30.43 in 10.0 mi SE 5.8 mph - 0.00 in   Mostly Cloudy
12:53 PM 53.1 °F - 44.1 °F 71% 30.42 in 10.0 mi ESE 8.1 mph - N/A   Scattered Clouds
1:53 PM 53.6 °F - 42.8 °F 67% 30.41 in 10.0 mi ESE 9.2 mph - N/A   Clear
2:53 PM 53.6 °F - 42.8 °F 67% 30.40 in 10.0 mi ESE 6.9 mph - N/A   Clear
3:53 PM 53.6 °F - 42.8 °F 67% 30.40 in 10.0 mi SE 6.9 mph - N/A   Clear
4:53 PM 50.0 °F - 43.0 °F 77% 30.39 in 10.0 mi SSE 3.5 mph - N/A   Clear
5:53 PM 48.2 °F - 42.8 °F 82% 30.39 in 10.0 mi SSE 6.9 mph - N/A   Clear
6:53 PM 46.4 °F 44.3 °F 42.8 °F 87% 30.39 in 10.0 mi SE 4.6 mph - N/A   Clear
7:53 PM 46.4 °F 45.2 °F 42.8 °F 87% 30.38 in 10.0 mi SE 3.5 mph - N/A   Clear
8:53 PM 46.9 °F - 43.0 °F 86% 30.38 in 10.0 mi South 4.6 mph - N/A   Clear
9:53 PM 44.1 °F 41.5 °F 42.1 °F 93% 30.37 in 10.0 mi SSE 4.6 mph - N/A   Clear
10:53 PM 45.0 °F 42.6 °F 42.1 °F 90% 30.37 in 10.0 mi SE 4.6 mph - N/A   Clear
11:53 PM 43.0 °F 41.3 °F 41.0 °F 93% 30.35 in 10.0 mi ESE 3.5 mph - N/A   Clear